Temperature
17 19 19 19 19 19 18 16 16 17 17 18 18 18 19 20 19 19 18 19 19 19 19 19 19 19 18 18 18 18 17 17 17 17 17 17 17 17 16 16 16 16 16 16
18 19 19 19 19 19 19 18 18 18 18 19 19 19 19 19 19 19 18 19 19 19 19 19 19 19 18 18 18 18 17 17 17 17 17 17 17 17 16 16 16 16 16 16
16 18 19 18 19 19 19 19 19 18 18 19 18 18 19 19 19 19 19 19 19 19 19 19 19 19 19 18 18 18 18 17 17 17 17 17 17 17 17 16 16 16 16 16
15 17 17 18 19 20 19 19 19 19 19 19 19 20 20 20 20 19 19 19 19 19 19 19 19 19 19 18 18 18 18 17 17 17 17 17 17 17 17 16 16 16 16 16
15 16 17 18 19 19 19 19 19 19 19 19 20 19 19 20 21 21 20 20 20 20 19 19 19 19 19 18 18 18 18 18 17 17 17 17 17 16 16 16 16 16 16 16
14 16 16 18 20 20 19 18 19 19 18 19 19 17 18 20 21 21 21 20 20 20 19 19 19 19 19 18 18 18 18 18 17 17 17 17 17 16 16 16 16 16 16 16
15 15 16 18 19 19 18 18 20 20 20 20 19 19 20 20 20 21 20 20 20 20 19 19 19 19 19 18 18 18 18 18 17 17 17 17 16 16 16 16 16 16 15 15
14 15 16 18 18 18 18 20 20 20 20 20 20 20 20 20 20 20 20 20 20 19 19 19 19 19 19 18 18 18 18 17 17 17 17 16 16 16 16 16 16 15 15 15
15 16 17 19 19 20 20 20 20 20 20 21 20 20 20 20 20 20 20 20 20 19 19 19 19 19 18 18 18 18 18 17 17 17 17 16 16 16 16 16 15 15 15 15
15 16 17 19 20 20 20 20 20 21 20 21 20 20 19 19 19 19 19 19 19 19 19 19 18 18 18 18 18 18 17 17 17 17 16 16 16 16 16 15 15 15 15 15
14 15 17 18 19 19 20 20 20 20 20 20 20 19 19 19 19 19 19 19 19 19 18 18 18 18 18 18 18 18 17 17 17 16 16 16 16 16 15 15 15 15 15 15
14 16 15 17 18 19 19 19 20 19 19 19 20 19 19 19 19 18 18 18 18 18 18 18 18 18 18 18 18 17 17 17 17 16 16 16 16 15 15 15 15 14 14 14
17 17 17 18 18 19 19 19 19 19 19 19 19 19 19 18 18 18 18 18 18 18 18 18 17 17 17 17 17 17 17 17 16 16 16 16 15 15 15 14 14 14 14 14
17 17 16 17 18 18 19 19 19 19 19 19 19 18 18 18 18 17 17 17 17 17 17 17 17 17 17 17 17 17 17 16 16 16 16 15 15 15 15 14 14 14 13 13
17 17 17 17 18 18 18 18 18 18 18 18 18 18 18 17 17 17 17 17 17 17 17 17 17 17 17 17 16 16 16 16 16 15 15 15 15 14 14 14 14 13 13 13
16 17 17 17 17 17 18 18 18 18 18 18 17 17 17 17 17 17 16 16 17 17 16 16 16 16 16 16 16 16 16 15 15 15 15 14 14 14 13 13 13 13 13 12
16 15 16 16 16 17 17 17 17 17 17 17 17 17 16 16 16 16 16 16 16 16 16 16 16 16 16 16 16 15 15 15 14 14 14 14 14 13 13 13 12 12 12 12
16 16 16 16 16 16 16 16 17 17 17 17 16 16 16 16 16 15 15 15 15 15 15 15 15 15 15 15 15 15 14 14 14 14 13 13 13 13 12 12 12 12 11 11
15 15 16 16 16 16 16 16 16 16 16 16 16 16 15 15 15 15 15 15 15 15 14 14 14 14 14 14 14 14 14 14 13 13 13 12 12 12 12 11 11 11 11 10
14 15 15 15 15 15 15 15 15 15 15 15 15 15 15 14 14 14 14 14 14 14 14 14 14 14 13 13 13 13 13 13 12 12 12 12 11 11 11 11 10 10 10 10
14 14 14 14 14 15 15 15 15 15 15 15 15 15 14 14 14 14 14 13 13 13 13 13 13 13 13 13 13 12 12 12 12 12 11 11 11 11 10 10 10 10 9 9
13 13 14 14 14 14 14 14 14 14 14 14 14 14 14 13 13 13 13 13 13 12 12 12 12 12 12 12 12 12 12 11 11 11 11 10 10 10 10 9 9 9 9 8
13 13 13 13 13 13 13 14 14 14 13 13 13 13 13 13 13 13 12 12 12 12 12 12 12 12 12 11 11 11 11 11 10 10 10 10 9 9 9 9 8 8 8 8
12 12 12 13 13 13 13 13 13 13 13 13 12 13 13 12 12 12 12 12 12 12 11 11 11 11 11 11 11 10 10 10 10 9 9 9 9 9 8 8 8 7 7 7
11 11 12 12 12 12 12 12 12 12 12 12 12 11 12 12 12 11 11 11 11 11 11 10 10 10 10 10 10 10 9 9 9 9 9 8 8 8 7 7 7 7 6 6
10 11 11 11 11 11 11 11 11 11 11 11 11 10 10 10 10 10 10 10 10 10 10 10 10 10 9 9 9 9 9 8 8 8 8 8 7 7 7 6 6 6 6 5
10 10 10 10 10 10 10 10 10 10 10 10 10 10 10 10 10 10 10 9 9 9 9 9 9 9 9 8 8 8 8 8 7 7 7 7 6 6 6 6 5 5 5 5
Wind_Speed
6 6 5 6 8 8 7 8 8 8 8 8 8 8 6 6 7 9 10 11 13 14 13 12 12 11 11 11 10 10 10 9 8 7 7 6 6 5 5 5 6 5 5 4
2 4 4 5 8 9 9 8 8 7 8 8 6 5 5 6 7 9 11 12 13 14 14 14 14 13 12 11 11 10 10 9 8 7 7 7 6 6 5 5 5 5 5 5
3 3 2 5 8 9 7 7 8 9 10 5 4 6 8 9 9 10 12 12 13 13 14 15 15 14 14 12 11 11 10 9 9 8 8 7 7 7 6 6 5 5 5 5
2 1 4 8 5 6 7 8 8 7 7 7 8 7 6 8 10 9 10 11 12 12 12 12 12 12 12 11 12 11 10 9 9 9 8 7 7 7 6 5 6 5 4 5
4 3 5 7 4 4 4 6 6 7 6 6 6 2 2 5 8 10 11 10 10 10 11 12 12 12 12 12 11 11 11 10 10 10 9 8 8 7 6 5 5 4 4 5
4 4 6 7 5 1 3 3 5 5 7 7 6 4 5 5 6 7 8 8 8 8 8 11 11 12 13 12 11 12 12 11 10 10 10 9 9 7 5 5 5 5 4 3
5 5 7 7 4 2 3 6 5 4 6 7 7 8 6 4 5 7 7 7 8 9 9 10 11 12 12 11 12 11 10 9 9 9 9 9 7 6 6 5 5 5 4 2
5 5 7 4 2 4 5 4 2 1 3 5 5 4 4 5 5 7 7 7 9 9 8 8 10 12 11 11 10 9 9 9 8 8 8 7 8 6 6 7 6 5 3 2
7 7 5 3 4 4 3 2 2 1 2 5 6 5 5 5 5 6 8 8 8 9 8 7 9 11 11 9 9 9 9 8 8 8 7 7 8 8 6 6 5 4 4 3
2 4 4 3 1 1 1 1 2 3 4 6 7 6 6 6 5 6 6 7 7 9 9 8 7 8 9 8 10 11 10 9 8 8 6 6 6 6 6 6 6 5 4 4
2 3 3 2 1 1 1 2 2 2 3 6 8 7 6 6 6 6 6 6 7 9 9 8 8 7 7 9 11 11 10 9 8 7 7 6 5 4 5 5 7 7 6 5
5 6 4 5 5 2 1 1 2 4 4 4 6 7 6 6 6 6 6 6 7 7 8 8 8 7 7 8 10 11 9 8 7 6 6 6 6 4 4 3 5 6 7 6
5 4 4 5 4 2 2 3 3 5 6 6 5 6 6 6 6 6 7 7 8 8 7 7 8 7 6 7 9 10 9 8 6 6 6 6 6 6 4 3 5 4 3 5
3 2 2 4 4 3 2 3 4 4 5 7 7 6 6 6 6 7 7 7 7 8 7 7 8 7 6 8 9 9 8 8 8 6 6 6 6 5 5 5 3 1 2 2
3 4 5 3 1 1 3 6 7 6 5 5 6 7 7 8 7 6 5 6 8 8 7 7 8 6 6 8 9 9 8 6 6 6 6 6 5 5 5 5 4 3 2 2
1 1 3 4 4 3 4 6 7 6 6 6 6 6 6 7 7 6 5 6 8 8 7 7 7 6 6 8 8 7 6 9 8 6 6 6 5 5 5 4 4 3 2 1
4 3 4 5 6 5 5 5 6 6 6 7 7 7 7 8 7 6 5 5 6 6 6 7 7 6 7 8 8 6 6 7 9 7 6 6 5 5 5 5 4 3 2 2
7 7 7 8 7 6 5 5 5 6 7 7 8 8 8 8 8 6 6 6 8 7 5 5 6 7 7 7 7 6 6 6 6 6 5 5 5 5 5 5 4 4 2 3
5 5 4 5 5 6 6 6 6 6 7 8 9 8 7 7 7 7 8 8 8 6 3 4 9 8 7 7 8 6 7 7 6 5 5 6 6 4 4 4 4 3 3 3
4 5 5 4 4 5 6 7 7 7 7 8 9 9 8 7 7 8 9 7 4 3 4 6 7 7 6 7 9 6 7 7 7 6 5 5 5 4 4 4 4 4 3 3
4 5 6 5 5 5 7 8 8 8 7 8 10 10 9 7 7 8 8 6 3 4 7 9 7 5 5 7 8 6 7 7 6 6 6 5 5 5 4 4 4 3 3 3
4 5 5 5 6 6 5 6 8 8 8 8 8 9 10 9 8 7 5 5 4 7 7 6 5 8 8 9 6 6 7 6 6 5 5 5 5 4 4 4 4 3 3 3
4 4 5 5 6 7 6 6 7 9 9 9 9 9 9 8 7 8 6 3 4 9 7 6 9 12 12 8 6 6 7 6 6 5 5 5 5 4 4 4 3 3 3 2
4 4 5 5 7 8 7 5 6 7 8 7 7 7 9 8 5 3 5 8 9 10 7 9 13 13 11 6 6 6 6 6 5 5 5 5 5 4 4 4 3 3 3 3
4 5 6 7 7 6 7 7 8 8 8 7 7 6 5 5 6 6 6 7 10 10 7 9 13 12 8 6 6 6 6 6 6 6 6 5 5 5 4 4 4 3 3 3
4 4 5 5 5 6 7 7 7 6 8 8 6 5 6 6 7 7 6 7 9 9 7 6 7 8 6 6 6 6 6 6 6 6 5 5 5 5 4 4 4 3 3 3
4 4 5 5 4 5 6 6 7 6 7 8 8 6 7 7 7 7 7 7 7 6 6 6 6 6 6 6 6 6 6 5 5 5 5 4 4 4 4 4 4 4 4 4
Wind_Direction
220 227 200 217 224 205 194 194 198 225 231 246 233 217 203 193 177 171 178 183 184 184 183 179 180 178 175 173 168 164 161 167 176 174 170 161 156 154 148 140 144 143 134 128
265 251 235 246 237 219 213 205 209 225 249 242 228 203 194 194 186 179 184 188 188 186 183 182 182 179 175 174 171 164 166 174 174 166 165 163 160 153 145 141 136 134 136 137
249 290 352 260 229 213 211 207 194 218 234 216 196 193 194 191 186 188 188 187 186 188 187 185 183 179 179 177 169 166 171 172 170 167 167 169 161 151 152 152 141 136 139 141
188 49 237 247 241 199 205 227 210 205 212 196 199 203 199 190 185 190 189 188 187 186 184 184 179 175 171 167 167 168 171 172 172 168 170 167 157 159 161 154 151 152 154 154
159 199 268 286 262 176 185 245 220 205 220 207 187 150 279 218 193 190 187 185 186 183 175 170 171 169 161 165 167 169 176 178 178 173 170 166 166 169 167 155 157 162 162 162
153 176 230 248 267 228 113 259 253 198 204 194 156 165 239 222 189 184 177 170 167 163 155 161 168 162 159 166 169 179 184 182 176 173 170 173 177 173 163 157 164 161 161 170
176 203 249 253 261 75 143 242 270 211 189 177 183 198 205 183 171 168 161 159 156 152 157 165 161 156 161 166 179 185 179 171 168 171 173 174 171 164 154 153 151 154 159 171
168 193 240 256 157 174 220 256 272 228 174 165 168 154 146 147 150 148 143 143 148 149 154 158 157 156 163 176 183 170 160 161 166 169 172 167 157 160 154 151 151 157 156 165
189 213 241 231 214 223 194 205 231 192 183 147 135 128 127 132 133 143 148 149 148 145 142 146 156 159 165 178 167 155 154 161 163 164 167 162 160 161 153 154 159 167 165 177
204 260 263 269 276 313 193 204 223 175 151 139 132 130 126 131 131 131 137 144 142 137 139 147 156 157 163 161 155 153 158 164 162 159 155 153 157 160 160 166 170 171 175 185
211 271 329 316 268 219 16 46 85 81 116 132 127 123 128 136 136 134 128 131 137 142 146 151 152 150 152 153 151 153 159 161 159 154 153 147 145 155 166 178 180 179 187 184
210 223 210 251 254 224 145 180 157 132 105 107 126 127 123 132 134 130 128 128 132 137 142 146 144 144 148 150 153 153 155 156 157 156 154 149 141 114 72 105 149 169 175 173
209 241 236 242 252 241 198 193 162 144 141 130 119 122 124 126 127 127 128 134 141 143 143 142 140 141 147 150 150 154 156 157 155 156 153 152 152 150 137 65 67 97 143 162
207 191 243 253 243 239 173 139 118 115 126 130 125 120 122 120 122 128 137 143 142 138 138 138 136 141 147 145 142 145 148 152 151 155 155 154 155 155 154 151 140 74 34 96
238 213 212 215 205 146 128 121 112 114 119 116 120 124 129 130 131 133 136 134 129 126 131 135 134 139 139 137 136 138 139 144 143 141 142 144 143 141 142 144 141 134 98 53
220 145 160 157 160 154 136 131 132 138 138 132 129 132 134 133 127 121 125 135 134 138 143 139 140 148 141 135 132 131 135 137 135 135 135 135 137 139 141 140 139 140 148 161
174 183 176 173 175 172 162 157 152 150 144 140 141 133 123 116 111 113 121 128 132 133 135 137 139 137 134 134 132 132 131 135 129 125 132 138 140 144 147 145 147 150 166 151
198 194 189 183 177 170 169 156 148 142 144 142 135 130 131 134 136 137 131 117 105 91 87 112 126 124 123 125 127 129 129 127 127 128 127 129 133 135 135 138 145 144 134 117
197 176 170 173 169 163 160 152 145 140 138 136 134 134 133 130 130 129 122 116 117 114 100 107 117 115 116 120 119 122 126 125 123 122 123 125 123 124 131 136 139 139 134 122
169 154 150 147 141 142 144 144 138 133 136 136 131 125 121 122 121 119 115 108 116 136 130 115 111 110 115 121 117 120 124 126 127 126 122 123 123 124 127 130 131 129 126 127
157 152 150 148 142 140 141 143 142 140 138 137 137 137 134 128 121 119 116 108 83 100 110 111 110 111 110 116 112 115 119 121 123 125 126 126 125 123 124 125 124 126 126 124
146 142 144 146 141 137 138 139 140 138 134 131 129 131 130 127 120 108 102 126 134 117 110 106 109 111 111 106 106 111 115 117 119 121 123 125 127 127 125 124 124 126 126 128
143 143 141 143 145 140 128 129 136 139 139 139 138 140 138 135 135 131 124 126 126 114 109 110 113 109 105 103 107 111 115 116 118 120 122 122 124 126 126 122 121 120 120 117
134 140 139 137 130 126 127 132 132 131 128 125 126 132 131 124 105 96 123 127 121 111 108 113 113 109 104 103 107 109 112 114 116 116 114 112 112 114 116 116 114 112 110 105
125 129 126 130 133 135 132 125 118 117 116 114 110 108 110 119 127 126 119 119 118 110 110 114 112 108 103 105 105 106 107 110 113 114 110 110 110 110 110 111 112 109 104 101
126 135 138 138 140 138 135 132 132 133 128 124 116 113 112 112 116 118 115 116 117 113 111 110 109 105 103 103 103 103 103 104 101 101 107 107 107 108 108 106 102 103 103 98
106 114 114 107 108 121 127 131 134 137 138 137 132 129 128 126 124 121 119 118 116 112 110 108 107 107 106 104 102 100 100 101 101 102 102 103 104 105 104 101 100 98 96 93
Height
1501 1497 1497 1498 1499 1500 1505 1509 1515 1510 1505 1498 1493 1492 1492 1493 1495 1497 1500 1503 1506 1510 1514 1518 1523 1527 1531 1535 1539 1543 1546 1549 1553 1555 1558 1560 1561 1563 1564 1566 1567 1568 1569 1569
1499 1494 1494 1496 1493 1494 1496 1498 1501 1500 1498 1490 1488 1489 1491 1492 1493 1495 1497 1500 1503 1506 1510 1515 1519 1524 1528 1533 1537 1541 1544 1548 1551 1554 1556 1558 1560 1562 1564 1565 1566 1568 1569 1569
1507 1498 1496 1501 1491 1489 1491 1489 1491 1496 1491 1486 1487 1487 1488 1489 1490 1492 1494 1496 1499 1503 1506 1511 1516 1521 1525 1530 1534 1539 1542 1546 1549 1552 1555 1557 1559 1561 1563 1565 1566 1567 1568 1569
1507 1504 1511 1494 1480 1480 1483 1483 1481 1482 1481 1482 1483 1483 1484 1485 1486 1489 1491 1494 1496 1499 1503 1508 1513 1518 1523 1528 1532 1536 1540 1543 1547 1550 1553 1556 1558 1560 1562 1564 1565 1566 1568 1568
1508 1509 1502 1487 1478 1478 1482 1483 1477 1478 1478 1478 1480 1481 1483 1483 1484 1486 1488 1491 1493 1497 1501 1505 1510 1516 1521 1525 1529 1533 1537 1540 1544 1547 1550 1553 1556 1558 1560 1562 1564 1565 1567 1567
1505 1507 1507 1488 1475 1473 1478 1484 1474 1473 1474 1475 1478 1485 1483 1481 1482 1484 1487 1489 1492 1495 1499 1504 1509 1513 1518 1522 1527 1530 1534 1537 1541 1545 1548 1550 1553 1556 1558 1560 1562 1564 1565 1566
1501 1502 1494 1478 1473 1474 1489 1485 1473 1471 1471 1472 1474 1476 1477 1479 1480 1482 1485 1488 1491 1494 1498 1502 1507 1511 1516 1520 1523 1527 1531 1535 1538 1542 1545 1548 1551 1554 1556 1558 1560 1562 1563 1564
1497 1500 1494 1472 1473 1477 1477 1471 1471 1470 1469 1470 1471 1473 1475 1476 1478 1481 1484 1487 1490 1493 1497 1501 1505 1510 1514 1518 1522 1526 1529 1533 1536 1539 1543 1546 1549 1551 1553 1556 1557 1559 1560 1561
1484 1483 1472 1470 1470 1470 1470 1470 1469 1469 1469 1469 1471 1472 1474 1476 1478 1480 1483 1486 1489 1493 1496 1500 1504 1508 1511 1515 1520 1523 1527 1530 1534 1537 1540 1543 1546 1548 1551 1553 1554 1556 1557 1558
1476 1473 1469 1469 1468 1468 1468 1468 1468 1468 1469 1469 1470 1472 1474 1476 1478 1481 1483 1486 1489 1492 1495 1499 1502 1506 1510 1514 1518 1521 1525 1528 1532 1535 1538 1541 1543 1546 1548 1549 1551 1553 1554 1556
1474 1471 1469 1467 1467 1467 1467 1468 1468 1468 1468 1469 1470 1472 1474 1476 1478 1481 1483 1486 1489 1491 1494 1498 1502 1505 1509 1512 1516 1519 1523 1526 1529 1532 1535 1538 1540 1542 1545 1547 1549 1550 1552 1553
1472 1468 1469 1468 1467 1467 1467 1467 1468 1468 1469 1470 1471 1472 1474 1476 1478 1481 1483 1486 1489 1491 1494 1498 1501 1504 1508 1511 1514 1517 1520 1523 1527 1529 1533 1535 1538 1540 1542 1544 1546 1548 1550 1551
1463 1464 1465 1465 1465 1466 1466 1466 1467 1468 1469 1470 1471 1473 1474 1476 1478 1481 1483 1486 1488 1491 1494 1497 1500 1503 1507 1510 1513 1515 1518 1521 1524 1527 1530 1532 1535 1537 1539 1542 1544 1545 1547 1548
1461 1462 1463 1463 1463 1464 1465 1465 1466 1468 1469 1470 1471 1473 1475 1476 1478 1480 1483 1485 1488 1491 1494 1496 1499 1502 1505 1508 1511 1514 1517 1519 1522 1525 1527 1530 1532 1534 1537 1539 1540 1542 1543 1545
1458 1459 1460 1461 1462 1463 1463 1464 1465 1467 1468 1470 1472 1473 1475 1476 1478 1480 1483 1486 1488 1490 1493 1496 1498 1501 1504 1507 1510 1512 1515 1518 1520 1523 1525 1528 1530 1532 1534 1536 1538 1539 1541 1542
1455 1456 1458 1459 1460 1461 1463 1463 1464 1466 1468 1469 1471 1473 1475 1476 1478 1480 1483 1485 1487 1489 1492 1495 1497 1500 1503 1506 1508 1511 1513 1516 1519 1521 1523 1526 1528 1530 1532 1534 1535 1537 1538 1539
1453 1454 1456 1457 1458 1460 1461 1462 1463 1465 1466 1468 1470 1472 1474 1476 1478 1480 1482 1485 1487 1489 1492 1494 1497 1500 1502 1505 1507 1509 1512 1515 1517 1520 1521 1524 1526 1528 1530 1532 1533 1535 1536 1537
1449 1451 1453 1455 1456 1458 1460 1461 1463 1464 1466 1467 1470 1472 1474 1476 1477 1479 1482 1484 1486 1489 1492 1494 1497 1499 1501 1504 1506 1508 1511 1513 1516 1518 1520 1522 1524 1526 1528 1530 1531 1533 1534 1535
1447 1449 1451 1452 1454 1456 1457 1459 1461 1463 1465 1467 1469 1471 1473 1475 1477 1479 1481 1484 1486 1488 1491 1494 1496 1499 1501 1503 1506 1508 1510 1512 1515 1517 1519 1521 1523 1525 1526 1528 1529 1531 1532 1532
1444 1446 1448 1450 1452 1454 1456 1458 1460 1462 1464 1466 1468 1471 1473 1475 1477 1479 1481 1483 1486 1488 1491 1493 1496 1498 1500 1503 1505 1507 1509 1511 1513 1515 1517 1519 1521 1523 1525 1526 1527 1528 1529 1530
1442 1444 1446 1448 1450 1452 1454 1456 1459 1461 1463 1465 1467 1469 1472 1475 1477 1479 1481 1483 1486 1489 1491 1494 1496 1498 1500 1502 1504 1506 1508 1510 1512 1514 1516 1518 1520 1522 1523 1524 1525 1526 1527 1528
1440 1442 1444 1446 1448 1450 1453 1455 1458 1460 1462 1465 1467 1469 1471 1474 1477 1480 1482 1484 1486 1489 1491 1494 1496 1498 1500 1502 1504 1506 1508 1510 1512 1514 1515 1517 1519 1520 1521 1522 1523 1524 1525 1525
1438 1440 1442 1444 1446 1448 1451 1454 1456 1459 1461 1464 1466 1468 1471 1474 1476 1479 1481 1485 1487 1489 1491 1493 1496 1498 1500 1502 1504 1506 1508 1510 1511 1513 1515 1516 1517 1519 1520 1521 1521 1522 1522 1523
1437 1439 1441 1443 1445 1447 1450 1452 1455 1458 1461 1463 1466 1469 1471 1474 1477 1480 1482 1485 1487 1489 1491 1493 1496 1498 1500 1502 1504 1505 1507 1509 1511 1512 1514 1515 1516 1517 1518 1519 1519 1519 1520 1520
1436 1438 1439 1442 1444 1446 1448 1451 1454 1457 1460 1463 1466 1469 1472 1474 1477 1479 1482 1484 1487 1489 1491 1494 1496 1498 1500 1501 1503 1505 1506 1508 1510 1511 1512 1513 1514 1515 1516 1516 1517 1517 1517 1517
1435 1437 1439 1441 1443 1445 1448 1450 1453 1456 1458 1461 1465 1468 1472 1475 1478 1480 1482 1485 1487 1489 1491 1493 1495 1498 1499 1501 1503 1504 1506 1507 1509 1510 1511 1512 1513 1513 1514 1514 1514 1514 1514 1514
1435 1436 1438 1440 1443 1445 1447 1450 1453 1455 1457 1460 1463 1467 1471 1474 1477 1480 1482 1484 1487 1489 1491 1493 1495 1497 1499 1500 1502 1504 1505 1507 1508 1509 1510 1510 1511 1511 1512 1512 1512 1512 1511 1511